User: anonymous   Login
Location: Fort Wayne
(41.1310°N, 85.1290°W)
Time: 15:49:30
(UTC-05:00)
Language:

Cosmos 2056 Rocket - Orbit

View from above orbital plane
View from above orbital plane
View from above satellite
View from above satellite

Ground track
Ground track

The orbit data is extracted from the following two-line orbital elements,

1 20433U 90004B   14354.24022278  .00000163  00000-0  65059-4 0  8942
2 20433 074.0350 226.4048 0041690 218.7675 280.6686 14.35743319304592
Epoch (UTC): 20 December 2014 05:45:55
Eccentricity: 0.0041690
inclination: 74.0350°
perigee height: 743 km
apogee height: 802 km
right ascension of ascending node: 226.4048°
argument of perigee: 218.7675°
revolutions per day: 14.35743319
mean anomaly at epoch: 280.6686°
orbit number at epoch: 30459

The dashed part of the orbit path shows where the satellite is in the earth's shadow,  

DLR